[Iaude] MPEC W74: 2016 WQ3 [a=1.02,e=0.12,i=0.6,H=28.7]

mpec at si.edu mpec at si.edu
Fri Nov 25 10:48:01 EST 2016


M.P.E.C. 2016-W74                                Issued 2016 Nov. 25, 15:42 UT
 
     The Minor Planet Electronic Circulars contain information on unusual
         minor planets and routine data on comets.  They are published
    on behalf of Division F of the International Astronomical Union by the
          Minor Planet Center, Smithsonian Astrophysical Observatory,
                          Cambridge, MA 02138, U.S.A.

             Prepared using the Tamkin Foundation Computer Network

                              MPC at CFA.HARVARD.EDU
            URL http://www.minorplanetcenter.net/    ISSN 1523-6714


                                   2016 WQ3
 
Observations:
     K16W03Q* C2016 11 23.36872 04 30 44.76 +23 33 04.2          19.9 VqEW074G96
     K16W03Q  C2016 11 23.37165 04 30 44.04 +23 33 19.6          20.1 VqEW074G96
     K16W03Q  C2016 11 23.37451 04 30 43.38 +23 33 33.9          20.2 VqEW074G96
     K16W03Q  C2016 11 24.39792 04 29 35.96 +25 19 33.9          20.1 VqEW074G96
     K16W03Q  C2016 11 24.40124 04 29 35.08 +25 19 55.2          20.1 VqEW074G96
     K16W03Q  C2016 11 24.40451 04 29 34.20 +25 20 15.7          19.5 VqEW074G96
     K16W03Q  C2016 11 24.40799 04 29 33.26 +25 20 37.8          20.2 VqEW074G96
     K16W03Q SC2016 11 24.89184 04 29 35.90 +26 17 44.9                qEW074J95
     K16W03Q KC2016 11 24.90827 04 29 32.43 +26 20 06.7                qEW074J95
     K16W03Q KC2016 11 24.92664 04 29 28.17 +26 22 45.7          20.1 RqEW074J95
     K16W03Q  C2016 11 25.18438 04 29 20.80 +27 01 08.0          19.8 VqEW074I52
     K16W03Q  C2016 11 25.18480 04 29 20.69 +27 01 11.7          20.3 VqEW074I52
     K16W03Q  C2016 11 25.18521 04 29 20.62 +27 01 17.3          20.2 VqEW074I52
     K16W03Q  C2016 11 25.18563 04 29 20.48 +27 01 20.3          19.5 VqEW074I52
     K16W03Q  C2016 11 25.42700 04 28 00.24 +27 37 53.5          20.2 RoEW074926
     K16W03Q  C2016 11 25.43058 04 27 59.12 +27 38 22.8          20.1 RoEW074926
     K16W03Q  C2016 11 25.43332 04 27 58.31 +27 38 45.2          20.3 RoEW074926
 
Observer details:
926 Tenagra II Observatory.  Observers M. Schwartz, P. R. Holvorcem.  Measurer
    M. Schwartz.  0.81-m f/7 Ritchey-Chretien + CCD.
G96 Mt. Lemmon Survey.  Observers R. G. Matheny, G. J. Leonard.  Measurers
    E. J. Christensen, D. C. Fuls, A. R. Gibbs, A. D. Grauer, J. A. Johnson,
    R. A. Kowalski, S. M. Larson, G. J. Leonard, R. G. Matheny, R. L. Seaman,
    F. C. Shelly.  1.5-m reflector + 10K CCD.
I52 Steward Observatory, Mt. Lemmon Station.  Observer J. A. Johnson.
    Measurers E. J. Christensen, D. C. Fuls, A. R. Gibbs, A. D. Grauer,
    J. A. Johnson, R. A. Kowalski, S. M. Larson, G. J. Leonard, R. G. Matheny,
    R. L. Seaman, F. C. Shelly.  1.0-m reflector + CCD.
J95 Great Shefford.  Observer P. Birtwhistle.  0.40-m f/6.0 Schmidt-Cassegrain
    + CCD.
 
Orbital elements:
2016 WQ3                                                 Earth MOID = 0.0039 AU
Epoch 2017 Feb. 16.0 TT = JDT 2457800.5                 MPC
M   4.21001              (2000.0)            P               Q
n   0.96240931     Peri.  104.52699     -0.88824110     -0.45930472
a   1.0160058      Node    48.13149     +0.41712750     -0.81387978
e   0.1224268      Incl.    0.62946     +0.19243805     -0.35586357
P   1.02           H   28.7           G   0.15           U   6
Residuals in seconds of arc
161123 G96  0.2-  0.1-    161124 G96  0.1-  0.3+    161125 I52  0.4-  1.5+
161123 G96  0.4-  0.1+    161124 J95  0.4-  0.4+    161125 I52  0.8-  0.4+
161123 G96  0.0   0.3-    161124 J95  0.8+  0.6-    161125 926  0.2+  0.1-
161124 G96  0.1-  0.5+    161124 J95  0.3+  0.4-    161125 926  0.1-  0.1-
161124 G96  0.1+  0.6+    161125 I52  0.9-  0.3+    161125 926  0.2+  0.1-
161124 G96  0.1+  0.2+    161125 I52  0.9-  0.1-

Ephemeris:
2016 WQ3                 a,e,i = 1.02, 0.12, 1                   q = 0.8916
Date    TT    R. A. (2000) Decl.     Delta      r     Elong.  Phase     V
2016 10 26    04 23 58.9 +13 57 53   0.08047 1.0614   145.5    32.0    24.7
...
2016 11 10    04 32 05.9 +15 38 32   0.04494 1.0321   158.2    20.9    23.1
...
2016 11 18    04 32 57.6 +18 30 03   0.02800 1.0156   166.1    13.6    21.8
...
2016 11 24    04 30 19.1 +24 36 41   0.01597 1.0031   171.8     8.1    20.3
2016 11 25    04 29 07.1 +26 37 22   0.01403 1.0010   171.7     8.2    20.0
2016 11 26    04 27 25.0 +29 15 56   0.01212 0.9989   170.6     9.3    19.7
...
2016 12 02    18 00 47.9 +68 10 54   0.0038260.9860    91.5    88.2    19.7
...
2016 12 10    16 42 12.5 -03 25 27   0.01673 0.9691    20.5   159.2    30.4
...
2016 12 25    16 40 33.0 -13 05 50   0.04799 0.9401    24.6   154.2    31.3

A. U. Tomatic                (C) Copyright 2016 MPC           M.P.E.C. 2016-W74




More information about the Iaude mailing list